• In Deutschland
  • Länderverzeichnis
  • Für 7 Tage
  • Wassertemperatur
  • Satellitenkarten
  • Wetterkarte
  • Widgets
  • user-avatar
    Anmelden

    Stündliche Wetter Wetzlar

    Heute, 21 April, Samstag

    Zeit Temperatur Niederschläge Wind Luftdruck Luftfeuchtigkeit
    00:00 +16°C° 0 mm 1 m/S 741 mmHg 70%
    01:00 +16°C° 0 mm 1 m/S 741 mmHg 73%
    02:00 +16°C° 0 mm 1 m/S 741 mmHg 76%
    03:00 +16°C° 0 mm 1 m/S 741 mmHg 79%
    04:00 +15°C° 0 mm 1 m/S 741 mmHg 83%
    05:00 +16°C° 0 mm 1 m/S 741 mmHg 82%
    06:00 +16°C° 0 mm 1 m/S 741 mmHg 82%
    07:00 +18°C° 0 mm 1 m/S 741 mmHg 82%
    08:00 +20°C° 0,1 mm 1 m/S 741 mmHg 75%
    09:00 +22°C° 0,1 mm 1 m/S 741 mmHg 68%
    10:00 +23°C° 0,1 mm 2 m/S 742 mmHg 61%
    11:00 +24°C° 0,1 mm 2 m/S 741 mmHg 56%
    12:00 +25°C° 0,1 mm 2 m/S 741 mmHg 50%
    13:00 +26°C° 0,1 mm 2 m/S 741 mmHg 45%
    14:00 +26°C° 0 mm 2 m/S 741 mmHg 45%
    15:00 +26°C° 0 mm 2 m/S 741 mmHg 46%
    16:00 +26°C° 0 mm 2 m/S 740 mmHg 46%
    17:00 +24°C° 0 mm 2 m/S 740 mmHg 53%
    18:00 +21°C° 0 mm 2 m/S 740 mmHg 61%
    19:00 +20°C° 0 mm 2 m/S 740 mmHg 68%
    20:00 +18°C° 0 mm 2 m/S 740 mmHg 73%
    21:00 +17°C° 0 mm 2 m/S 740 mmHg 77%
    22:00 +16°C° 0 mm 2 m/S 740 mmHg 81%
    23:00 +15°C° 0 mm 2 m/S 740 mmHg 82%

    Morgen, 22 April, Sonntag

    Zeit Temperatur Niederschläge Wind Luftdruck Luftfeuchtigkeit
    00:00 +15°C° 0 mm 2 m/S 740 mmHg 84%
    01:00 +14°C° 0 mm 1 m/S 740 mmHg 85%
    02:00 +14°C° 0 mm 1 m/S 740 mmHg 87%
    03:00 +14°C° 0 mm 1 m/S 739 mmHg 89%
    04:00 +13°C° 0 mm 1 m/S 739 mmHg 91%
    05:00 +14°C° 0 mm 1 m/S 739 mmHg 89%
    06:00 +15°C° 0 mm 1 m/S 739 mmHg 87%
    07:00 +16°C° 0 mm 1 m/S 738 mmHg 85%
    08:00 +19°C° 0 mm 1 m/S 738 mmHg 78%
    09:00 +20°C° 0 mm 2 m/S 738 mmHg 71%
    10:00 +23°C° 0 mm 2 m/S 738 mmHg 64%
    11:00 +24°C° 0 mm 3 m/S 737 mmHg 59%
    12:00 +25°C° 0 mm 3 m/S 737 mmHg 53%
    13:00 +26°C° 0 mm 3 m/S 737 mmHg 47%
    14:00 +26°C° 0,1 mm 3 m/S 737 mmHg 48%
    15:00 +26°C° 0,1 mm 3 m/S 736 mmHg 50%
    16:00 +26°C° 0,1 mm 3 m/S 736 mmHg 51%
    17:00 +25°C° 0,1 mm 3 m/S 736 mmHg 57%
    18:00 +22°C° 0,1 mm 3 m/S 736 mmHg 64%
    19:00 +20°C° 0,1 mm 3 m/S 735 mmHg 70%
    20:00 +19°C° 0 mm 2 m/S 736 mmHg 75%
    21:00 +18°C° 0 mm 2 m/S 736 mmHg 79%
    22:00 +17°C° 0 mm 2 m/S 736 mmHg 83%
    23:00 +16°C° 0 mm 2 m/S 736 mmHg 85%

    übermorgen, 23 April, Montag

    Zeit Temperatur Niederschläge Wind Luftdruck Luftfeuchtigkeit
    00:00 +16°C° 0 mm 2 m/S 736 mmHg 86%
    01:00 +15°C° 0 mm 2 m/S 736 mmHg 88%
    02:00 +15°C° 0,2 mm 2 m/S 736 mmHg 89%
    03:00 +15°C° 0,2 mm 2 m/S 736 mmHg 91%
    04:00 +15°C° 0,2 mm 2 m/S 736 mmHg 92%
    05:00 +15°C° 0,5 mm 2 m/S 736 mmHg 92%
    06:00 +15°C° 0,5 mm 2 m/S 736 mmHg 91%
    07:00 +16°C° 0,5 mm 2 m/S 736 mmHg 91%
    08:00 +16°C° 0,4 mm 3 m/S 736 mmHg 87%
    09:00 +17°C° 0,4 mm 4 m/S 736 mmHg 82%
    10:00 +18°C° 0,4 mm 4 m/S 736 mmHg 78%
    11:00 +19°C° 0,4 mm 4 m/S 736 mmHg 72%
    12:00 +19°C° 0,4 mm 5 m/S 736 mmHg 67%
    13:00 +20°C° 0,4 mm 5 m/S 736 mmHg 61%
    14:00 +19°C° 0,1 mm 5 m/S 736 mmHg 59%
    15:00 +19°C° 0,1 mm 5 m/S 737 mmHg 57%
    16:00 +19°C° 0,1 mm 5 m/S 737 mmHg 55%
    17:00 +17°C° 0 mm 5 m/S 737 mmHg 60%
    18:00 +15°C° 0 mm 4 m/S 737 mmHg 64%
    19:00 +14°C° 0 mm 3 m/S 737 mmHg 69%
    20:00 +12°C° 0 mm 3 m/S 738 mmHg 73%
    21:00 +11°C° 0 mm 3 m/S 739 mmHg 78%
    22:00 +10°C° 0 mm 2 m/S 739 mmHg 82%
    23:00 +9°C° 0 mm 2 m/S 739 mmHg 84%

    24 April, Dienstag

    Zeit Temperatur Niederschläge Wind Luftdruck Luftfeuchtigkeit
    00:00 +9°C° 0 mm 2 m/S 739 mmHg 86%
    01:00 +9°C° 0 mm 1 m/S 740 mmHg 87%
    02:00 +9°C° 0 mm 1 m/S 739 mmHg 88%
    03:00 +8°C° 0 mm 2 m/S 739 mmHg 89%
    04:00 +8°C° 0 mm 2 m/S 739 mmHg 90%
    05:00 +8°C° 0 mm 2 m/S 739 mmHg 86%
    06:00 +9°C° 0 mm 3 m/S 739 mmHg 82%
    07:00 +10°C° 0 mm 3 m/S 739 mmHg 77%
    08:00 +11°C° 0 mm 4 m/S 739 mmHg 70%
    09:00 +13°C° 0 mm 4 m/S 739 mmHg 63%
    10:00 +15°C° 0 mm 4 m/S 739 mmHg 56%
    11:00 +17°C° 0 mm 4 m/S 739 mmHg 54%
    12:00 +18°C° 0 mm 4 m/S 739 mmHg 53%
    13:00 +19°C° 0 mm 4 m/S 738 mmHg 52%
    14:00 +19°C° 0 mm 4 m/S 738 mmHg 56%
    15:00 +19°C° 0 mm 4 m/S 738 mmHg 61%
    16:00 +18°C° 0 mm 3 m/S 737 mmHg 65%
    17:00 +17°C° 0 mm 2 m/S 737 mmHg 70%
    18:00 +17°C° 0 mm 2 m/S 737 mmHg 74%
    19:00 +16°C° 0 mm 1 m/S 736 mmHg 78%
    20:00 +15°C° 0 mm 1 m/S 736 mmHg 81%
    21:00 +14°C° 0 mm 2 m/S 736 mmHg 84%
    22:00 +13°C° 0 mm 2 m/S 736 mmHg 87%
    23:00 +13°C° 0 mm 2 m/S 736 mmHg 88%

    25 April, Mittwoch

    Zeit Temperatur Niederschläge Wind Luftdruck Luftfeuchtigkeit
    00:00 +13°C° 0 mm 2 m/S 735 mmHg 89%
    01:00 +12°C° 0 mm 2 m/S 735 mmHg 90%
    02:00 +11°C° 0 mm 3 m/S 735 mmHg 90%
    03:00 +11°C° 0 mm 3 m/S 734 mmHg 91%
    04:00 +11°C° 0 mm 3 m/S 734 mmHg 91%
    05:00 +11°C° 0 mm 3 m/S 734 mmHg 89%
    06:00 +12°C° 0 mm 4 m/S 734 mmHg 87%
    07:00 +12°C° 0 mm 4 m/S 734 mmHg 85%
    08:00 +13°C° 0,2 mm 4 m/S 735 mmHg 84%
    09:00 +13°C° 0,2 mm 4 m/S 735 mmHg 83%
    10:00 +13°C° 0,2 mm 4 m/S 736 mmHg 82%
    11:00 +14°C° 0,2 mm 4 m/S 736 mmHg 80%
    12:00 +14°C° 0,2 mm 4 m/S 736 mmHg 79%
    13:00 +14°C° 0,2 mm 4 m/S 736 mmHg 77%
    14:00 +15°C° 0,1 mm 4 m/S 736 mmHg 70%
    15:00 +15°C° 0,1 mm 4 m/S 736 mmHg 63%
    16:00 +16°C° 0,1 mm 5 m/S 736 mmHg 56%
    17:00 +15°C° 0 mm 4 m/S 736 mmHg 60%
    18:00 +14°C° 0 mm 3 m/S 736 mmHg 64%
    19:00 +14°C° 0 mm 2 m/S 736 mmHg 68%
    20:00 +12°C° 0 mm 2 m/S 736 mmHg 72%
    21:00 +10°C° 0 mm 2 m/S 737 mmHg 77%
    22:00 +10°C° 0 mm 1 m/S 737 mmHg 81%
    23:00 +8°C° 0 mm 2 m/S 737 mmHg 83%

    26 April, Donnerstag

    Zeit Temperatur Niederschläge Wind Luftdruck Luftfeuchtigkeit
    00:00 +8°C° 0 mm 2 m/S 737 mmHg 85%
    01:00 +7°C° 0 mm 2 m/S 737 mmHg 87%
    02:00 +7°C° 0 mm 2 m/S 737 mmHg 87%
    03:00 +6°C° 0 mm 2 m/S 737 mmHg 87%
    04:00 +6°C° 0 mm 2 m/S 737 mmHg 88%
    05:00 +5°C° 0 mm 3 m/S 737 mmHg 83%
    06:00 +6°C° 0 mm 4 m/S 737 mmHg 79%
    07:00 +7°C° 0 mm 5 m/S 737 mmHg 74%
    08:00 +8°C° 0,1 mm 5 m/S 737 mmHg 71%
    09:00 +8°C° 0,1 mm 5 m/S 738 mmHg 68%
    10:00 +9°C° 0,1 mm 6 m/S 738 mmHg 65%
    11:00 +10°C° 0,1 mm 6 m/S 738 mmHg 58%
    12:00 +11°C° 0,1 mm 6 m/S 738 mmHg 52%
    13:00 +13°C° 0,1 mm 6 m/S 738 mmHg 46%
    14:00 +13°C° 0,1 mm 6 m/S 738 mmHg 48%
    15:00 +13°C° 0,1 mm 6 m/S 737 mmHg 50%
    16:00 +13°C° 0,1 mm 6 m/S 737 mmHg 51%
    17:00 +10°C° 0,1 mm 5 m/S 737 mmHg 57%
    18:00 +10°C° 0,1 mm 4 m/S 738 mmHg 63%
    19:00 +9°C° 0,1 mm 3 m/S 738 mmHg 69%
    20:00 +8°C° 0 mm 3 m/S 738 mmHg 72%
    21:00 +7°C° 0 mm 3 m/S 739 mmHg 75%
    22:00 +5°C° 0 mm 3 m/S 739 mmHg 79%
    23:00 +5°C° 0 mm 3 m/S 739 mmHg 81%
    Mehr zeigen